Location: Oshawa
(43.9000°N, 78.8670°W)
Time: 20:45:17
(UTC-05:00)

Explorer 7 - Visible Passes

Search period start: 21 February 2017 00:00
Search period end: 03 March 2017 00:00
Orbit: 486 x 685 km, 50.3° (Epoch: 21 February)

Date Brightness Start Highest point End Pass type
(mag) Time Alt. Az. Time Alt. Az. Time Alt. Az.
21 Feb 7.6 19:52:10 10° W 19:56:35 54° NNW 19:57:38 44° NNE visible
21 Feb 10.1 21:33:33 10° WNW 21:34:02 13° WNW 21:34:02 13° WNW visible
22 Feb 7.1 18:17:31 10° SW 18:21:49 69° SSE 18:26:26 10° ENE visible
22 Feb 7.9 19:58:23 10° W 20:02:43 44° NNW 20:03:35 40° NNE visible
22 Feb 10.2 21:39:42 10° WNW 21:39:58 11° WNW 21:39:58 11° WNW visible
23 Feb 7.1 18:23:26 10° WSW 18:27:47 83° NNW 18:32:28 10° ENE visible
23 Feb 8.0 20:04:37 10° WNW 20:08:54 39° N 20:09:28 37° NNE visible
23 Feb 10.3 21:45:47 10° WNW 21:45:52 10° WNW 21:45:52 10° WNW visible
24 Feb 7.4 18:29:30 10° WSW 18:33:50 61° NNW 18:38:27 10° ENE visible
24 Feb 8.1 20:10:51 10° WNW 20:15:05 37° N 20:15:19 37° N visible
25 Feb 7.7 18:35:42 10° W 18:39:56 48° NNW 18:44:28 10° ENE visible
25 Feb 8.1 20:17:01 10° WNW 20:21:08 37° N 20:21:08 37° N visible
26 Feb 8.0 18:41:55 10° W 18:46:05 41° N 18:50:31 10° ENE visible
26 Feb 8.1 20:23:07 10° WNW 20:26:56 39° N 20:26:56 39° N visible
27 Feb 8.1 18:48:08 10° WNW 18:52:15 37° N 18:56:20 11° ENE visible
27 Feb 8.1 20:29:09 10° WNW 20:32:43 42° NNW 20:32:43 42° NNW visible
28 Feb 8.1 18:54:20 10° WNW 18:58:26 36° N 19:02:08 13° ENE visible
28 Feb 8.0 20:35:09 10° WNW 20:38:31 44° NNW 20:38:31 44° NNW visible
01 Mar 8.0 19:00:27 10° WNW 19:04:37 38° N 19:07:57 16° ENE visible
01 Mar 8.1 20:41:07 10° WNW 20:44:20 45° NW 20:44:20 45° NW visible
02 Mar 7.8 19:06:31 10° WNW 19:10:46 42° NNE 19:13:48 19° ENE visible
02 Mar 8.2 20:47:07 10° WNW 20:50:12 42° WNW 20:50:12 42° WNW visible
